JAL9980 CYVR-CYYC

Flight info

Callsign JAL9980
Flight time 1h 4m
Altitude 41000
Route DAPED DCT PETLI DCT MENBO Q983 NORET IGVEP7
Aircraft A35K/H-SDE2E3GHIJ3J4J5LM1ORWXY/LB1D1

Departure

Time 2026-05-08 02:50
Airport Vancouver International Airport (CYVR)

Arrival

Time 2026-05-08 03:54
Airport Calgary International Airport (CYYC)
Time Latitude Longitude Altitude Speed Heading
2026-05-08 02:15 49.19654 -123.18461 24 ft 0 kts 198°
2026-05-08 02:29 49.19645 -123.18465 27 ft 5 kts 198°
2026-05-08 02:29 49.19616 -123.18479 26 ft 0 kts 198°
2026-05-08 02:33 49.19615 -123.18480 25 ft 0 kts 198°
2026-05-08 02:33 49.19616 -123.18480 26 ft 0 kts 198°
2026-05-08 02:33 49.19618 -123.18479 27 ft 1 kts 198°
2026-05-08 02:34 49.19623 -123.18476 25 ft 1 kts 198°
2026-05-08 02:34 49.19626 -123.18475 24 ft 0 kts 198°
2026-05-08 02:34 49.19629 -123.18473 25 ft 1 kts 198°
2026-05-08 02:34 49.19634 -123.18470 27 ft 1 kts 198°
2026-05-08 02:35 49.19642 -123.18467 24 ft 1 kts 198°
2026-05-08 02:35 49.19650 -123.18462 29 ft 0 kts 198°
2026-05-08 02:35 49.19651 -123.18462 24 ft 0 kts 198°
2026-05-08 02:35 49.19653 -123.18461 42 ft 1 kts 198°
2026-05-08 02:36 49.19658 -123.18458 29 ft 1 kts 198°
2026-05-08 02:36 49.19665 -123.18455 29 ft 1 kts 198°
2026-05-08 02:36 49.19674 -123.18450 29 ft 2 kts 198°
2026-05-08 02:36 49.19682 -123.18446 28 ft 2 kts 198°
2026-05-08 02:37 49.19695 -123.18439 28 ft 2 kts 198°
2026-05-08 02:37 49.19696 -123.18439 27 ft 0 kts 199°
2026-05-08 02:37 49.19698 -123.18437 28 ft 1 kts 199°
2026-05-08 02:37 49.19703 -123.18435 27 ft 1 kts 199°
2026-05-08 02:38 49.19707 -123.18433 26 ft 0 kts 199°
2026-05-08 02:39 49.19704 -123.18434 27 ft 3 kts 199°
2026-05-08 02:39 49.19679 -123.18449 28 ft 0 kts 201°
2026-05-08 02:40 49.19677 -123.18450 28 ft 0 kts 201°
2026-05-08 02:40 49.19672 -123.18453 28 ft 1 kts 202°
2026-05-08 02:40 49.19671 -123.18453 28 ft 0 kts 202°
2026-05-08 02:41 49.19669 -123.18460 28 ft 1 kts 229°
2026-05-08 02:41 49.19670 -123.18473 27 ft 2 kts 272°
2026-05-08 02:41 49.19683 -123.18500 28 ft 6 kts 310°
2026-05-08 02:41 49.19719 -123.18574 29 ft 12 kts 304°
2026-05-08 02:42 49.19754 -123.18704 27 ft 15 kts 282°
2026-05-08 02:42 49.19773 -123.18885 29 ft 19 kts 281°
2026-05-08 02:42 49.19787 -123.19092 25 ft 12 kts 246°
2026-05-08 02:42 49.19707 -123.19142 26 ft 15 kts 188°
2026-05-08 02:43 49.19592 -123.19170 24 ft 17 kts 171°
2026-05-08 02:43 49.19482 -123.19074 24 ft 20 kts 139°
2026-05-08 02:43 49.19370 -123.18939 23 ft 17 kts 142°
2026-05-08 02:43 49.19267 -123.18818 24 ft 21 kts 142°
2026-05-08 02:44 49.19144 -123.18670 24 ft 24 kts 142°
2026-05-08 02:44 49.19018 -123.18519 23 ft 22 kts 143°
2026-05-08 02:44 49.18941 -123.18319 22 ft 24 kts 103°
2026-05-08 02:44 49.18909 -123.18051 22 ft 27 kts 99°
2026-05-08 02:45 49.18882 -123.17793 22 ft 25 kts 98°
2026-05-08 02:45 49.18852 -123.17509 22 ft 29 kts 100°
2026-05-08 02:45 49.18811 -123.17196 22 ft 32 kts 101°
2026-05-08 02:45 49.18774 -123.16850 22 ft 33 kts 99°
2026-05-08 02:46 49.18737 -123.16507 22 ft 33 kts 98°
2026-05-08 02:46 49.18701 -123.16312 22 ft 5 kts 120°
2026-05-08 02:46 49.18667 -123.16244 23 ft 11 kts 129°
2026-05-08 02:46 49.18633 -123.16130 22 ft 9 kts 102°
2026-05-08 02:47 49.18620 -123.16072 22 ft 0 kts 124°
2026-05-08 02:47 49.18603 -123.16046 23 ft 5 kts 136°
2026-05-08 02:47 49.18597 -123.16045 24 ft 0 kts 164°
2026-05-08 02:48 49.18596 -123.16044 24 ft 2 kts 165°
2026-05-08 02:48 49.18578 -123.16041 25 ft 5 kts 174°
2026-05-08 02:48 49.18531 -123.16051 28 ft 9 kts 200°
2026-05-08 02:49 49.18485 -123.16134 23 ft 13 kts 255°
2026-05-08 02:49 49.18499 -123.16343 22 ft 45 kts 279°
2026-05-08 02:49 49.18601 -123.17246 25 ft 124 kts 280°
2026-05-08 02:49 49.18800 -123.18881 99 ft 182 kts 279°
2026-05-08 02:50 49.19036 -123.20930 546 ft 210 kts 278°
2026-05-08 02:50 49.19267 -123.23304 1050 ft 243 kts 276°
2026-05-08 02:50 49.19425 -123.26063 1568 ft 277 kts 270°
2026-05-08 02:50 49.19443 -123.29164 2214 ft 306 kts 269°
2026-05-08 02:51 49.19464 -123.32557 2916 ft 331 kts 270°
2026-05-08 02:51 49.19510 -123.36167 3643 ft 350 kts 271°
2026-05-08 02:51 49.19441 -123.39972 4410 ft 364 kts 264°
2026-05-08 02:51 49.18886 -123.43745 5175 ft 366 kts 251°
2026-05-08 02:52 49.17770 -123.47266 5999 ft 373 kts 237°
2026-05-08 02:52 49.16134 -123.50247 6890 ft 371 kts 221°
2026-05-08 02:52 49.14008 -123.52459 7820 ft 372 kts 205°
2026-05-08 02:52 49.11542 -123.53590 8759 ft 371 kts 187°
2026-05-08 02:53 49.08982 -123.53409 9745 ft 369 kts 167°
2026-05-08 02:53 49.06588 -123.52165 10722 ft 357 kts 160°
2026-05-08 02:53 49.04298 -123.50821 11611 ft 352 kts 158°
2026-05-08 02:53 49.02194 -123.48902 12152 ft 357 kts 141°
2026-05-08 02:54 49.00703 -123.45883 12664 ft 365 kts 112°
2026-05-08 02:54 49.00428 -123.41956 12485 ft 389 kts 89°
2026-05-08 02:54 49.00481 -123.37784 12827 ft 393 kts 90°
2026-05-08 02:54 49.00661 -123.33667 13659 ft 387 kts 82°
2026-05-08 02:55 49.01208 -123.29680 14416 ft 382 kts 76°
2026-05-08 02:55 49.02779 -123.22033 15608 ft 381 kts 78°
2026-05-08 02:55 49.03189 -123.18000 15844 ft 389 kts 84°
2026-05-08 02:56 49.03426 -123.13888 15866 ft 390 kts 87°
2026-05-08 02:56 49.03613 -123.09759 15858 ft 391 kts 87°
2026-05-08 02:56 49.03822 -123.05624 15864 ft 391 kts 86°
2026-05-08 02:56 49.04077 -123.01501 15857 ft 391 kts 85°
2026-05-08 02:57 49.04377 -122.97391 15871 ft 392 kts 84°
2026-05-08 02:57 49.04714 -122.93243 16201 ft 395 kts 84°
2026-05-08 02:57 49.05049 -122.89331 16724 ft 396 kts 83°
2026-05-08 02:57 49.05413 -122.85158 17233 ft 398 kts 83°
2026-05-08 02:58 49.05776 -122.80991 17700 ft 401 kts 84°
2026-05-08 02:58 49.06045 -122.77871 18053 ft 404 kts 84°
2026-05-08 02:58 49.06404 -122.73668 18506 ft 406 kts 84°
2026-05-08 02:58 49.06767 -122.69376 18889 ft 410 kts 84°
2026-05-08 02:59 49.07129 -122.65046 19259 ft 413 kts 84°
2026-05-08 02:59 49.07491 -122.60683 19639 ft 417 kts 84°
2026-05-08 02:59 49.07855 -122.56271 20022 ft 420 kts 84°
2026-05-08 02:59 49.08219 -122.51840 20411 ft 423 kts 84°
2026-05-08 03:00 49.08586 -122.47361 20783 ft 426 kts 83°
2026-05-08 03:00 49.08952 -122.42866 21168 ft 429 kts 83°
2026-05-08 03:00 49.09319 -122.38349 21541 ft 432 kts 83°
2026-05-08 03:00 49.09690 -122.33760 21903 ft 435 kts 83°
2026-05-08 03:01 49.10059 -122.29158 22272 ft 438 kts 83°
2026-05-08 03:01 49.10429 -122.24532 22631 ft 441 kts 83°
2026-05-08 03:01 49.10800 -122.19873 22993 ft 444 kts 83°
2026-05-08 03:01 49.11170 -122.15184 23354 ft 447 kts 83°
2026-05-08 03:02 49.11543 -122.10444 23701 ft 450 kts 83°
2026-05-08 03:02 49.11916 -122.05682 23972 ft 453 kts 83°
2026-05-08 03:02 49.12288 -122.00900 24262 ft 456 kts 83°
2026-05-08 03:02 49.12661 -121.96081 24556 ft 458 kts 83°
2026-05-08 03:03 49.13034 -121.91238 24831 ft 461 kts 83°
2026-05-08 03:03 49.13407 -121.86367 25132 ft 463 kts 83°
2026-05-08 03:03 49.13775 -121.81534 25418 ft 466 kts 83°
2026-05-08 03:03 49.14152 -121.76549 25720 ft 468 kts 83°
2026-05-08 03:04 49.14505 -121.71854 25981 ft 471 kts 83°
2026-05-08 03:04 49.14877 -121.66897 26301 ft 473 kts 83°
2026-05-08 03:04 49.15279 -121.61909 26603 ft 476 kts 82°
2026-05-08 03:04 49.15729 -121.56887 26908 ft 478 kts 81°
2026-05-08 03:05 49.16199 -121.51836 27227 ft 481 kts 81°
2026-05-08 03:05 49.16673 -121.46761 27568 ft 484 kts 81°
2026-05-08 03:05 49.17144 -121.41657 27893 ft 487 kts 81°
2026-05-08 03:05 49.17610 -121.36515 28282 ft 490 kts 81°
2026-05-08 03:06 49.18072 -121.31337 28672 ft 492 kts 81°
2026-05-08 03:06 49.18529 -121.26135 29024 ft 495 kts 80°
2026-05-08 03:06 49.18966 -121.21096 29368 ft 498 kts 80°
2026-05-08 03:06 49.19422 -121.15826 29767 ft 500 kts 80°
2026-05-08 03:07 49.19876 -121.10543 30098 ft 504 kts 80°
2026-05-08 03:07 49.20334 -121.05194 30348 ft 507 kts 80°
2026-05-08 03:07 49.20789 -120.99847 30672 ft 510 kts 80°
2026-05-08 03:07 49.21247 -120.94448 31009 ft 513 kts 80°
2026-05-08 03:08 49.21705 -120.89017 31336 ft 516 kts 80°
2026-05-08 03:08 49.22156 -120.83627 31653 ft 519 kts 80°
2026-05-08 03:08 49.22613 -120.78139 31964 ft 522 kts 80°
2026-05-08 03:08 49.23071 -120.72612 32273 ft 525 kts 80°
2026-05-08 03:09 49.23528 -120.67057 32566 ft 528 kts 80°
2026-05-08 03:09 49.23985 -120.61462 32842 ft 531 kts 80°
2026-05-08 03:09 49.24443 -120.55847 33111 ft 535 kts 80°
2026-05-08 03:09 49.24895 -120.50251 33420 ft 537 kts 80°
2026-05-08 03:10 49.25161 -120.46935 33597 ft 538 kts 80°
2026-05-08 03:10 49.25551 -120.42052 33963 ft 538 kts 80°
2026-05-08 03:10 49.25821 -120.38657 34200 ft 537 kts 80°
2026-05-08 03:10 49.26235 -120.33425 34587 ft 536 kts 80°
2026-05-08 03:11 49.26674 -120.27826 34963 ft 535 kts 80°
2026-05-08 03:11 49.27122 -120.22091 35379 ft 534 kts 80°
2026-05-08 03:11 49.27548 -120.16614 35766 ft 533 kts 80°
2026-05-08 03:11 49.27984 -120.10976 36161 ft 533 kts 80°
2026-05-08 03:12 49.28396 -120.05557 36518 ft 531 kts 80°
2026-05-08 03:12 49.28811 -120.00042 36975 ft 530 kts 80°
2026-05-08 03:12 49.29249 -119.94297 37279 ft 531 kts 80°
2026-05-08 03:12 49.29601 -119.89658 37567 ft 531 kts 80°
2026-05-08 03:13 49.29916 -119.85463 37864 ft 529 kts 80°
2026-05-08 03:13 49.30314 -119.80114 38275 ft 528 kts 79°
2026-05-08 03:13 49.30732 -119.74519 38514 ft 529 kts 80°
2026-05-08 03:13 49.31149 -119.68915 38790 ft 529 kts 79°
2026-05-08 03:14 49.31799 -119.63410 39111 ft 522 kts 71°
2026-05-08 03:14 49.32926 -119.58236 39426 ft 514 kts 62°
2026-05-08 03:14 49.34408 -119.53238 39723 ft 510 kts 59°
2026-05-08 03:14 49.35960 -119.48351 40028 ft 508 kts 58°
2026-05-08 03:15 49.37491 -119.43685 40299 ft 507 kts 58°
2026-05-08 03:15 49.39123 -119.38791 40566 ft 506 kts 58°
2026-05-08 03:15 49.40728 -119.33990 40844 ft 506 kts 58°
2026-05-08 03:16 49.43886 -119.24457 40923 ft 507 kts 58°
2026-05-08 03:16 49.47081 -119.14667 40935 ft 506 kts 58°
2026-05-08 03:17 49.50191 -119.05059 40942 ft 506 kts 58°
2026-05-08 03:17 49.53277 -118.95493 40952 ft 506 kts 58°
2026-05-08 03:18 49.56038 -118.86904 40950 ft 505 kts 58°
2026-05-08 03:18 49.59133 -118.77242 40957 ft 506 kts 58°
2026-05-08 03:19 49.62147 -118.67795 40967 ft 505 kts 58°
2026-05-08 03:19 49.65255 -118.58019 40968 ft 505 kts 58°
2026-05-08 03:20 49.68338 -118.48290 40970 ft 505 kts 58°
2026-05-08 03:20 49.71282 -118.38947 40966 ft 505 kts 58°
2026-05-08 03:21 49.73733 -118.31150 40969 ft 505 kts 58°
2026-05-08 03:21 49.76159 -118.23409 40960 ft 506 kts 58°
2026-05-08 03:22 49.78417 -118.16183 40957 ft 506 kts 58°
2026-05-08 03:22 49.81288 -118.06962 40968 ft 506 kts 58°
2026-05-08 03:23 49.84345 -117.97102 40970 ft 506 kts 58°
2026-05-08 03:23 49.87372 -117.87310 40949 ft 505 kts 58°
2026-05-08 03:24 49.89968 -117.78895 40955 ft 505 kts 58°
2026-05-08 03:24 49.91432 -117.74122 40953 ft 505 kts 58°
2026-05-08 03:25 49.94429 -117.64324 40955 ft 505 kts 58°
2026-05-08 03:25 49.97428 -117.54451 40958 ft 505 kts 59°
2026-05-08 03:26 50.00418 -117.44590 40961 ft 504 kts 58°
2026-05-08 03:26 50.03359 -117.34892 40952 ft 504 kts 58°
2026-05-08 03:27 50.06345 -117.25036 40963 ft 503 kts 58°
2026-05-08 03:27 50.09304 -117.15141 40962 ft 505 kts 59°
2026-05-08 03:28 50.12137 -117.05645 40961 ft 504 kts 59°
2026-05-08 03:28 50.15057 -116.95851 40358 ft 501 kts 58°
2026-05-08 03:28 50.16540 -116.90835 39628 ft 505 kts 58°
2026-05-08 03:29 50.18002 -116.85847 38975 ft 507 kts 58°
2026-05-08 03:29 50.19468 -116.80836 38264 ft 509 kts 57°
2026-05-08 03:29 50.20918 -116.75905 37469 ft 511 kts 57°
2026-05-08 03:29 50.22282 -116.71296 36734 ft 512 kts 57°
2026-05-08 03:30 50.25274 -116.61193 35251 ft 513 kts 57°
2026-05-08 03:30 50.28220 -116.51150 33696 ft 517 kts 57°
2026-05-08 03:31 50.31139 -116.41122 32029 ft 519 kts 58°
2026-05-08 03:31 50.34093 -116.30902 30622 ft 516 kts 58°
2026-05-08 03:32 50.35555 -116.25822 30136 ft 509 kts 58°
2026-05-08 03:32 50.37001 -116.20786 29545 ft 503 kts 58°
2026-05-08 03:32 50.38403 -116.15892 29000 ft 496 kts 58°
2026-05-08 03:33 50.40845 -116.06190 28073 ft 489 kts 64°
2026-05-08 03:33 50.41912 -116.01142 27559 ft 485 kts 64°
2026-05-08 03:33 50.43311 -115.94560 26888 ft 479 kts 64°
2026-05-08 03:33 50.44373 -115.89638 26396 ft 475 kts 64°
2026-05-08 03:34 50.45435 -115.84750 25900 ft 471 kts 63°
2026-05-08 03:34 50.46492 -115.79907 25402 ft 466 kts 64°
2026-05-08 03:34 50.47315 -115.76132 25031 ft 463 kts 63°
2026-05-08 03:34 50.48309 -115.71579 24555 ft 460 kts 64°
2026-05-08 03:35 50.49338 -115.66844 24094 ft 456 kts 64°
2026-05-08 03:35 50.50355 -115.62158 23610 ft 452 kts 64°
2026-05-08 03:35 50.52287 -115.53264 22647 ft 444 kts 64°
2026-05-08 03:36 50.53277 -115.48705 22170 ft 440 kts 64°
2026-05-08 03:36 50.54253 -115.44189 21687 ft 433 kts 64°
2026-05-08 03:36 50.55218 -115.39732 21263 ft 428 kts 65°
2026-05-08 03:36 50.56157 -115.35347 20812 ft 421 kts 65°
2026-05-08 03:37 50.57058 -115.31137 20374 ft 416 kts 66°
2026-05-08 03:37 50.57944 -115.27001 19968 ft 412 kts 66°
2026-05-08 03:37 50.58814 -115.22917 19554 ft 408 kts 66°
2026-05-08 03:37 50.59685 -115.18845 19105 ft 407 kts 67°
2026-05-08 03:38 50.60602 -115.14532 18652 ft 406 kts 68°
2026-05-08 03:38 50.61492 -115.10321 18185 ft 404 kts 68°
2026-05-08 03:38 50.62371 -115.06137 17696 ft 401 kts 68°
2026-05-08 03:38 50.63236 -115.02011 17248 ft 397 kts 68°
2026-05-08 03:39 50.64101 -114.97909 16815 ft 394 kts 68°
2026-05-08 03:39 50.64961 -114.93833 16365 ft 390 kts 69°
2026-05-08 03:39 50.65807 -114.89799 15923 ft 386 kts 69°
2026-05-08 03:39 50.66649 -114.85789 15489 ft 384 kts 69°
2026-05-08 03:40 50.67486 -114.81809 15061 ft 382 kts 69°
2026-05-08 03:40 50.68310 -114.77835 14621 ft 380 kts 69°
2026-05-08 03:40 50.69125 -114.73887 14183 ft 377 kts 69°
2026-05-08 03:40 50.69936 -114.69968 13749 ft 375 kts 69°
2026-05-08 03:41 50.70936 -114.66203 13292 ft 368 kts 58°
2026-05-08 03:41 50.72451 -114.63020 12858 ft 362 kts 45°
2026-05-08 03:41 50.74160 -114.60180 12428 ft 358 kts 43°
2026-05-08 03:41 50.75931 -114.57347 12091 ft 364 kts 43°
2026-05-08 03:42 50.77727 -114.54475 11888 ft 374 kts 43°
2026-05-08 03:42 50.79556 -114.51515 11512 ft 374 kts 44°
2026-05-08 03:42 50.81320 -114.48634 11277 ft 361 kts 44°
2026-05-08 03:42 50.81748 -114.47953 11211 ft 358 kts 43°
2026-05-08 03:43 50.83513 -114.45264 10945 ft 347 kts 42°
2026-05-08 03:43 50.85241 -114.42677 10683 ft 337 kts 42°
2026-05-08 03:43 50.86872 -114.40227 10465 ft 328 kts 42°
2026-05-08 03:43 50.88510 -114.37756 10222 ft 319 kts 42°
2026-05-08 03:44 50.90099 -114.35350 10003 ft 310 kts 43°
2026-05-08 03:44 50.91408 -114.32704 9750 ft 304 kts 64°
2026-05-08 03:44 50.91824 -114.29487 9515 ft 297 kts 89°
2026-05-08 03:44 50.91721 -114.26276 9325 ft 289 kts 92°
2026-05-08 03:45 50.91609 -114.23234 9137 ft 281 kts 90°
2026-05-08 03:45 50.91432 -114.20184 8892 ft 274 kts 101°
2026-05-08 03:45 50.90699 -114.17797 8627 ft 272 kts 128°
2026-05-08 03:45 50.89417 -114.16228 8370 ft 268 kts 155°
2026-05-08 03:46 50.87732 -114.15608 8146 ft 261 kts 173°
2026-05-08 03:46 50.85989 -114.15004 7993 ft 252 kts 150°
2026-05-08 03:46 50.84829 -114.13081 7834 ft 241 kts 111°
2026-05-08 03:46 50.84660 -114.10811 7666 ft 231 kts 75°
2026-05-08 03:47 50.85380 -114.08800 7417 ft 225 kts 39°
2026-05-08 03:47 50.86189 -114.07901 7261 ft 222 kts 25°
2026-05-08 03:47 50.86846 -114.07443 7151 ft 220 kts 17°
2026-05-08 03:47 50.87790 -114.06949 7045 ft 216 kts 16°
2026-05-08 03:48 50.88539 -114.06531 6966 ft 213 kts 20°
2026-05-08 03:48 50.89067 -114.06165 6905 ft 212 kts 26°
2026-05-08 03:48 50.89894 -114.05272 6802 ft 211 kts 43°
2026-05-08 03:48 50.90537 -114.04063 6750 ft 212 kts 53°
2026-05-08 03:49 50.91127 -114.02756 6730 ft 213 kts 53°
2026-05-08 03:49 50.92026 -114.01111 6684 ft 213 kts 41°
2026-05-08 03:49 50.93053 -113.99972 6610 ft 205 kts 27°
2026-05-08 03:49 50.93950 -113.99387 6457 ft 196 kts 16°
2026-05-08 03:50 50.94853 -113.99081 6335 ft 186 kts
2026-05-08 03:50 50.95779 -113.98993 6160 ft 178 kts
2026-05-08 03:50 50.96655 -113.98996 5956 ft 173 kts 359°
2026-05-08 03:50 50.97769 -113.99020 5749 ft 164 kts 359°
2026-05-08 03:51 50.98857 -113.99037 5568 ft 157 kts 360°
2026-05-08 03:51 50.99947 -113.99044 5411 ft 158 kts 360°
2026-05-08 03:51 51.01021 -113.99047 5254 ft 159 kts 360°
2026-05-08 03:51 51.01964 -113.99048 5092 ft 161 kts
2026-05-08 03:52 51.02926 -113.99048 4929 ft 160 kts
2026-05-08 03:52 51.04011 -113.99047 4736 ft 161 kts
2026-05-08 03:52 51.05232 -113.99047 4790 ft 188 kts 360°
2026-05-08 03:52 51.06550 -113.99060 4562 ft 182 kts 359°
2026-05-08 03:53 51.07799 -113.99089 4106 ft 178 kts 359°
2026-05-08 03:53 51.08971 -113.99098 3908 ft 163 kts
2026-05-08 03:53 51.10066 -113.99105 3781 ft 148 kts
2026-05-08 03:53 51.11047 -113.99083 3636 ft 135 kts
2026-05-08 03:54 51.11931 -113.99078 3563 ft 116 kts
2026-05-08 03:54 51.12604 -113.99036 3565 ft 81 kts 359°
2026-05-08 03:54 51.12958 -113.99083 3564 ft 26 kts 339°
2026-05-08 03:54 51.13081 -113.99185 3563 ft 13 kts 319°
2026-05-08 03:55 51.13129 -113.99298 3560 ft 12 kts 311°
2026-05-08 03:55 51.13137 -113.99417 3558 ft 10 kts 226°
2026-05-08 03:55 51.13060 -113.99447 3558 ft 13 kts 183°
2026-05-08 03:55 51.12959 -113.99447 3562 ft 16 kts 178°
2026-05-08 03:56 51.12841 -113.99445 3560 ft 18 kts 180°
2026-05-08 03:56 51.12722 -113.99471 3559 ft 17 kts 225°
2026-05-08 03:56 51.12699 -113.99658 3559 ft 17 kts 269°
2026-05-08 03:56 51.12700 -113.99836 3559 ft 19 kts 270°
2026-05-08 03:57 51.12703 -114.00068 3560 ft 21 kts 284°
2026-05-08 03:57 51.12782 -114.00154 3561 ft 10 kts 334°
2026-05-08 03:57 51.12803 -114.00221 3558 ft 5 kts 265°
2026-05-08 03:57 51.12801 -114.00275 3561 ft 0 kts 269°
2026-05-08 03:58 51.12801 -114.00285 3563 ft 3 kts 269°
2026-05-08 03:58 51.12801 -114.00305 3565 ft 0 kts 270°